Change the Weather History Date:

Sunday, June 30, 2013

  Actual Average Record
Temperature  
Mean Temperature 72 °F -  
Max Temperature 81 °F 88 °F 95 °F (1998)
Min Temperature 63 °F 65 °F 62 °F (2011)
Cooling Degree Days 7    
Growing Degree Days 22 (Base 50)    
Moisture  
Dew Point 55 °F    
Average Humidity 56    
Maximum Humidity 77    
Minimum Humidity 24    
Precipitation  
Precipitation 0.00 in 0.01 in - ()
Sea Level Pressure  
Sea Level Pressure 29.87 in    
Wind  
Wind Speed 6 mph ()    
Max Wind Speed 17 mph    
Max Gust Speed 25 mph    
Visibility 6.6 miles    
Events      
Averages and records for this station are not official NWS values.
T = Trace of Precipitation, MM = Missing Value Source: Averaged Metar Reports

Daily Weather History Graph

Daily Weather History Graph

Search for Another Location

Airport or City:

Trip Planner

Search our weather history database for the weather conditions in past years. The results will help you decide how hot, cold, wet, or windy it might be!

Date:

Astronomy

Jun. 30, 2013 Rise Set
Actual Time 6:15 AM EEST 9:11 PM EEST
Civil Twilight 5:43 AM EEST 9:44 PM EEST
Nautical Twilight 5:02 AM EEST 10:25 PM EEST
Astronomical Twilight 4:15 AM EEST 11:12 PM EEST
Moon 1:04 AM EEST (6/30) 2:08 PM EEST (6/30)
Length of Visible Light 16h 00m
Length of Day
14h 55m
Waning Gibbous, 48% of the Moon is Illuminated
Jun 30
Waning Gibbous
Jul 8
New
Jul 16
First Quarter
Jul 22
Full
Jul 29
Last Quarter

Hourly Weather History & Observations

Time (EEST) Temp. Dew Point Humidity Pressure Visibility Wind Dir Wind Speed Gust Speed Precip Events Conditions
12:20 AM 68.0 °F 57.2 °F 68% 29.89 in 6.2 mi NW 6.9 mph - N/A   Partly Cloudy
12:50 AM 68.0 °F 55.4 °F 64% 29.89 in 6.2 mi NW 5.8 mph - N/A   Partly Cloudy
1:20 AM 68.0 °F 55.4 °F 64% 29.89 in 6.2 mi NNW 6.9 mph - N/A   Partly Cloudy
1:50 AM 66.2 °F 57.2 °F 73% 29.86 in 6.2 mi WNW 4.6 mph - N/A   Partly Cloudy
2:20 AM 66.2 °F 57.2 °F 73% 29.86 in 6.2 mi WNW 4.6 mph - N/A   Partly Cloudy
2:50 AM 66.2 °F 57.2 °F 73% 29.86 in 6.2 mi WNW 5.8 mph - N/A   Partly Cloudy
3:00 AM 66 °F 57 °F 65% 29.88 in 6 mi WNW 5.8 mph - -   Scattered Clouds
3:20 AM 66.2 °F 57.2 °F 73% 29.86 in 6.2 mi West 5.8 mph - N/A   Partly Cloudy
3:50 AM 64.4 °F 57.2 °F 77% 29.86 in 6.2 mi WNW 4.6 mph - N/A   Partly Cloudy
4:20 AM 64.4 °F 57.2 °F 77% 29.86 in 6.2 mi WNW 4.6 mph - N/A   Partly Cloudy
4:50 AM 64.4 °F 57.2 °F 77% 29.86 in 6.2 mi SW 3.5 mph - N/A   Partly Cloudy
5:20 AM 64.4 °F 57.2 °F 77% 29.86 in 6.2 mi SW 3.5 mph - N/A   Partly Cloudy
5:50 AM 64.4 °F 55.4 °F 73% 29.86 in 6.2 mi NW 5.8 mph - N/A   Partly Cloudy
6:20 AM 64.4 °F 55.4 °F 73% 29.86 in 6.2 mi WNW 4.6 mph - N/A   Partly Cloudy
6:50 AM 64.4 °F 55.4 °F 73% 29.86 in 6.2 mi WSW 4.6 mph - N/A   Scattered Clouds
7:20 AM 64.4 °F 55.4 °F 73% 29.86 in 6.2 mi WSW 4.6 mph - N/A   Scattered Clouds
7:50 AM 68.0 °F 55.4 °F 64% 29.86 in 6.2 mi NW 8.1 mph - N/A   Scattered Clouds
8:20 AM 68.0 °F 55.4 °F 64% 29.86 in 6.2 mi NW 5.8 mph - N/A   Scattered Clouds
8:50 AM 69.8 °F 55.4 °F 60% 29.86 in 6.2 mi NW 6.9 mph - N/A   Scattered Clouds
9:00 AM 69 °F 55 °F 52% 29.87 in 12 mi NW 6.9 mph - -   Scattered Clouds
9:20 AM 69.8 °F 55.4 °F 60% 29.86 in 6.2 mi NNE 3.5 mph - N/A   Scattered Clouds
9:50 AM 69.8 °F 57.2 °F 64% 29.86 in 6.2 mi Variable 3.5 mph - N/A   Partly Cloudy
10:20 AM 71.6 °F 57.2 °F 60% 29.86 in 6.2 mi Calm Calm - N/A   Partly Cloudy
10:50 AM 73.4 °F 55.4 °F 53% 29.86 in 6.2 mi Calm Calm - N/A   Partly Cloudy
11:20 AM 73.4 °F 55.4 °F 53% 29.86 in 6.2 mi North 4.6 mph - N/A   Partly Cloudy
11:50 AM 77.0 °F 55.4 °F 47% 29.86 in 6.2 mi NNE 3.5 mph - N/A   Partly Cloudy
12:20 PM 77.0 °F 55.4 °F 47% 29.86 in 6.2 mi NE 5.8 mph - N/A   Partly Cloudy
12:50 PM 77.0 °F 55.4 °F 47% 29.86 in 6.2 mi NNE 4.6 mph - N/A   Partly Cloudy
1:20 PM 78.8 °F 55.4 °F 44% 29.86 in 6.2 mi North 4.6 mph - N/A   Partly Cloudy
2:20 PM 78.8 °F 55.4 °F 44% 29.86 in 6.2 mi NNW 8.1 mph - N/A   Partly Cloudy
2:50 PM 80.6 °F 50.0 °F 34% 29.86 in 6.2 mi NW 9.2 mph - N/A   Partly Cloudy
3:00 PM 81 °F 51 °F 24% 29.86 in 12 mi NW 9.2 mph - -   Scattered Clouds
3:20 PM 80.6 °F 50.0 °F 34% 29.86 in 6.2 mi NNW 15.0 mph - N/A   Partly Cloudy
3:50 PM 80.6 °F 50.0 °F 34% 29.86 in 6.2 mi NW 16.1 mph - N/A   Partly Cloudy
4:20 PM 80.6 °F 50.0 °F 34% 29.86 in 6.2 mi NW 16.1 mph - N/A   Partly Cloudy
4:50 PM 80.6 °F 50.0 °F 34% 29.86 in 6.2 mi NW 16.1 mph - N/A   Partly Cloudy
5:50 PM 80.6 °F 51.8 °F 37% 29.86 in 6.2 mi NW 17.3 mph - N/A   Partly Cloudy
6:20 PM 80.6 °F 51.8 °F 37% 29.86 in 6.2 mi NW 16.1 mph - N/A   Partly Cloudy
6:50 PM 78.8 °F 50.0 °F 36% 29.86 in 6.2 mi NW 11.5 mph 25.3 mph N/A   Partly Cloudy
7:20 PM 78.8 °F 50.0 °F 36% 29.86 in 6.2 mi NW 13.8 mph - N/A   Partly Cloudy
8:20 PM 75.2 °F 50.0 °F 41% 29.86 in - North - - N/A   Clear
8:50 PM 75.2 °F 53.6 °F 47% 29.89 in - WNW 1.2 mph - N/A   Clear
9:00 PM 75 °F 54 °F 38% 29.89 in 12 mi WNW 11.5 mph - -  
9:20 PM 73.4 °F 53.6 °F 50% 29.89 in - NW 11.5 mph 25.3 mph N/A   Clear
9:50 PM 71.6 °F 59.0 °F 64% 29.89 in - WNW 9.2 mph - N/A   Clear
10:50 PM 71.6 °F 57.2 °F 60% 29.92 in - WNW 6.9 mph - N/A   Clear
11:20 PM 71.6 °F 57.2 °F 60% 29.92 in - West 4.6 mph - N/A   Clear
11:50 PM 69.8 °F 57.2 °F 64% 29.95 in - Calm Calm - N/A   Clear